| time (UTC) | temp F | wind direction | speed MPH | gust MPH | rain 1hr in | rain 24hr in | rain mn in | humidity % | barometer mb |
| 20260508170044 | 64 | 175 | 5.0 | 13.0 | 0.00 | 0.00 | 0.00 | 30 | 1005.7 |
| 20260508164554 | 64 | 178 | 3.0 | 9.0 | 0.00 | 0.00 | 0.00 | 32 | 1005.9 |
| 20260508163040 | 63 | 128 | 2.0 | 8.0 | 0.00 | 0.00 | 0.00 | 34 | 1005.9 |
| 20260508161547 | 61 | 194 | 2.0 | 5.0 | 0.00 | 0.00 | 0.00 | 38 | 1006.1 |
| 20260508160037 | 60 | 182 | 2.0 | 6.0 | 0.00 | 0.00 | 0.00 | 41 | 1006.2 |
| 20260508154546 | 58 | 102 | 1.0 | 4.0 | 0.00 | 0.00 | 0.00 | 46 | 1006.4 |
| 20260508153043 | 56 | 164 | 1.0 | 4.0 | 0.00 | 0.00 | 0.00 | 44 | 1006.6 |
| 20260508151544 | 55 | 198 | 0.0 | 6.0 | 0.00 | 0.00 | 0.00 | 45 | 1006.8 |
| 20260508150052 | 54 | 183 | 1.0 | 7.0 | 0.00 | 0.00 | 0.00 | 45 | 1006.9 |
| 20260508144551 | 54 | 116 | 0.0 | 4.0 | 0.00 | 0.00 | 0.00 | 47 | 1007.0 |
| 20260508143045 | 53 | 124 | 0.0 | 5.0 | 0.00 | 0.00 | 0.00 | 46 | 1007.2 |
| 20260508141551 | 51 | 125 | 1.0 | 4.0 | 0.00 | 0.00 | 0.00 | 49 | 1007.3 |
| 20260508140048 | 50 | 183 | 0.0 | 2.0 | 0.00 | 0.00 | 0.00 | 52 | 1007.5 |
| 20260508134541 | 50 | 0 | 0.0 | 3.0 | 0.00 | 0.00 | 0.00 | 54 | 1007.6 |
| 20260508133104 | 49 | 0 | 0.0 | 3.0 | 0.00 | 0.00 | 0.00 | 54 | 1007.7 |
| 20260508131538 | 48 | 0 | 0.0 | 2.0 | 0.00 | 0.00 | 0.00 | 55 | 1007.8 |
| 20260508130043 | 47 | 0 | 0.0 | 0.0 | 0.00 | 0.00 | 0.00 | 61 | 1007.8 |
| 20260508124541 | 45 | 0 | 0.0 | 1.0 | 0.00 | 0.00 | 0.00 | 67 | 1007.9 |
| 20260508123052 | 41 | 0 | 0.0 | 0.0 | 0.00 | 0.00 | 0.00 | 78 | 1007.9 |
| 20260508121538 | 37 | 0 | 0.0 | 0.0 | 0.00 | 0.00 | 0.00 | 85 | 1007.8 |
| 20260508120052 | 34 | 0 | 0.0 | 0.0 | 0.00 | 0.00 | 0.00 | 83 | 1007.7 |
| 20260508114544 | 33 | 0 | 0.0 | 0.0 | 0.00 | 0.00 | 0.00 | 82 | 1007.7 |
| 20260508113055 | 33 | 0 | 0.0 | 0.0 | 0.00 | 0.00 | 0.00 | 81 | 1007.7 |
| 20260508111548 | 33 | 0 | 0.0 | 0.0 | 0.00 | 0.00 | 0.00 | 80 | 1007.7 |
| 20260508110054 | 34 | 0 | 0.0 | 0.0 | 0.00 | 0.00 | 0.00 | 79 | 1007.7 |
| 20260508104547 | 35 | 0 | 0.0 | 0.0 | 0.00 | 0.00 | 0.00 | 79 | 1007.8 |
| 20260508103052 | 35 | 0 | 0.0 | 0.0 | 0.00 | 0.00 | 0.00 | 78 | 1007.8 |
| 20260508101541 | 35 | 0 | 0.0 | 0.0 | 0.00 | 0.00 | 0.00 | 78 | 1007.8 |
| 20260508100040 | 35 | 0 | 0.0 | 0.0 | 0.00 | 0.00 | 0.00 | 78 | 1007.8 |
| 20260508094547 | 35 | 0 | 0.0 | 1.0 | 0.00 | 0.00 | 0.00 | 80 | 1007.8 |
| 20260508093038 | 34 | 0 | 0.0 | 0.0 | 0.00 | 0.00 | 0.00 | 83 | 1007.9 |
| 20260508091552 | 34 | 0 | 0.0 | 0.0 | 0.00 | 0.00 | 0.00 | 84 | 1007.7 |
| 20260508090059 | 34 | 0 | 0.0 | 0.0 | 0.00 | 0.00 | 0.00 | 85 | 1007.8 |
| 20260508084549 | 35 | 0 | 0.0 | 0.0 | 0.00 | 0.00 | 0.00 | 85 | 1007.9 |
| 20260508083040 | 34 | 0 | 0.0 | 0.0 | 0.00 | 0.00 | 0.00 | 85 | 1007.8 |
| 20260508081537 | 34 | 0 | 0.0 | 0.0 | 0.00 | 0.00 | 0.00 | 84 | 1007.8 |
| 20260508080042 | 34 | 0 | 0.0 | 0.0 | 0.00 | 0.00 | 0.00 | 83 | 1007.9 |
| 20260508074544 | 35 | 0 | 0.0 | 0.0 | 0.00 | 0.00 | 0.00 | 82 | 1007.9 |
| 20260508073041 | 35 | 0 | 0.0 | 0.0 | 0.00 | 0.00 | 0.00 | 81 | 1008.0 |
| 20260508071547 | 35 | 0 | 0.0 | 0.0 | 0.00 | 0.00 | 0.00 | 81 | 1008.1 |
| 20260508070045 | 36 | 0 | 0.0 | 0.0 | 0.00 | 0.00 | 0.00 | 80 | 1008.1 |
| 20260508064542 | 36 | 0 | 0.0 | 0.0 | 0.00 | 0.00 | 0.00 | 79 | 1008.2 |
| 20260508063038 | 36 | 0 | 0.0 | 0.0 | 0.00 | 0.00 | 0.00 | 77 | 1008.2 |
| 20260508061538 | 36 | 0 | 0.0 | 0.0 | 0.00 | 0.00 | 0.00 | 76 | 1008.3 |
| 20260508060044 | 37 | 0 | 0.0 | 0.0 | 0.00 | 0.00 | 0.00 | 75 | 1008.5 |
| 20260508054545 | 37 | 0 | 0.0 | 0.0 | 0.00 | 0.00 | 0.00 | 74 | 1008.5 |
| 20260508053108 | 37 | 0 | 0.0 | 0.0 | 0.00 | 0.00 | 0.00 | 72 | 1008.7 |
| 20260508051542 | 38 | 0 | 0.0 | 0.0 | 0.00 | 0.00 | 0.00 | 69 | 1008.8 |
| 20260508050039 | 38 | 0 | 0.0 | 0.0 | 0.00 | 0.00 | 0.00 | 68 | 1008.8 |
| 20260508044549 | 39 | 0 | 0.0 | 0.0 | 0.00 | 0.00 | 0.00 | 67 | 1008.8 |
| 20260508043044 | 39 | 0 | 0.0 | 0.0 | 0.00 | 0.00 | 0.00 | 63 | 1009.0 |
| 20260508041607 | 40 | 0 | 0.0 | 0.0 | 0.00 | 0.00 | 0.00 | 61 | 1008.9 |
| 20260508040059 | 41 | 0 | 0.0 | 0.0 | 0.00 | 0.00 | 0.00 | 60 | 1009.0 |
| 20260508034537 | 42 | 0 | 0.0 | 0.0 | 0.00 | 0.00 | 0.00 | 59 | 1009.1 |
| 20260508033038 | 43 | 0 | 0.0 | 0.0 | 0.00 | 0.00 | 0.00 | 56 | 1009.2 |
| 20260508031547 | 44 | 0 | 0.0 | 0.0 | 0.00 | 0.00 | 0.00 | 54 | 1009.2 |
| 20260508030044 | 45 | 0 | 0.0 | 0.0 | 0.00 | 0.00 | 0.00 | 50 | 1009.3 |
| 20260508024544 | 46 | 0 | 0.0 | 0.0 | 0.00 | 0.00 | 0.00 | 47 | 1009.2 |
| 20260508023040 | 48 | 0 | 0.0 | 0.0 | 0.00 | 0.00 | 0.00 | 46 | 1009.0 |
| 20260508021541 | 50 | 0 | 0.0 | 0.0 | 0.00 | 0.00 | 0.00 | 43 | 1008.9 |
| 20260508020050 | 52 | 0 | 0.0 | 0.0 | 0.00 | 0.00 | 0.00 | 39 | 1008.9 |
| 20260508014548 | 53 | 0 | 0.0 | 0.0 | 0.00 | 0.00 | 0.00 | 36 | 1008.9 |
| 20260508013044 | 55 | 0 | 0.0 | 3.0 | 0.00 | 0.00 | 0.00 | 33 | 1008.8 |
| 20260508011550 | 56 | 186 | 2.0 | 6.0 | 0.00 | 0.00 | 0.00 | 32 | 1008.7 |
| 20260508010040 | 56 | 185 | 3.0 | 9.0 | 0.00 | 0.00 | 0.00 | 31 | 1008.7 |
| 20260508004537 | 57 | 234 | 2.0 | 8.0 | 0.00 | 0.00 | 0.00 | 31 | 1008.6 |
| 20260508003047 | 57 | 194 | 3.0 | 8.0 | 0.00 | 0.00 | 0.00 | 31 | 1008.5 |
| 20260508001540 | 57 | 217 | 2.0 | 7.0 | 0.00 | 0.00 | 0.00 | 31 | 1008.6 |
| 20260508000043 | 57 | 196 | 3.0 | 7.0 | 0.00 | 0.00 | 0.00 | 30 | 1008.7 |
| 20260507234543 | 58 | 207 | 3.0 | 9.0 | 0.00 | 0.00 | 0.00 | 29 | 1008.7 |
| 20260507233056 | 58 | 0 | 2.0 | 10.0 | 0.00 | 0.00 | 0.00 | 31 | 1008.8 |
| 20260507231541 | 59 | 180 | 3.0 | 9.0 | 0.00 | 0.00 | 0.00 | 31 | 1008.8 |
| 20260507230037 | 58 | 208 | 1.0 | 8.0 | 0.00 | 0.00 | 0.00 | 31 | 1009.0 |
| 20260507224555 | 57 | 181 | 2.0 | 11.0 | 0.00 | 0.00 | 0.00 | 32 | 1009.1 |
| 20260507223043 | 58 | 209 | 2.0 | 8.0 | 0.00 | 0.00 | 0.00 | 31 | 1009.2 |
| 20260507221541 | 58 | 212 | 4.0 | 9.0 | 0.00 | 0.00 | 0.00 | 29 | 1009.2 |
| 20260507220038 | 59 | 167 | 3.0 | 7.0 | 0.00 | 0.00 | 0.00 | 29 | 1009.3 |
| 20260507214546 | 58 | 0 | 2.0 | 9.0 | 0.00 | 0.00 | 0.00 | 29 | 1009.4 |
| 20260507213058 | 58 | 137 | 4.0 | 9.0 | 0.00 | 0.00 | 0.00 | 28 | 1009.5 |
| 20260507211547 | 58 | 149 | 4.0 | 11.0 | 0.00 | 0.00 | 0.00 | 29 | 1009.5 |
| 20260507210049 | 58 | 217 | 1.0 | 7.0 | 0.00 | 0.00 | 0.00 | 28 | 1009.7 |
| 20260507204542 | 58 | 153 | 2.0 | 13.0 | 0.00 | 0.00 | 0.00 | 29 | 1009.8 |
| 20260507203047 | 57 | 198 | 3.0 | 14.0 | 0.00 | 0.00 | 0.00 | 29 | 1010.1 |
| 20260507201546 | 57 | 152 | 2.0 | 6.0 | 0.00 | 0.00 | 0.00 | 29 | 1010.2 |
| 20260507200048 | 57 | 75 | 3.0 | 11.0 | 0.00 | 0.00 | 0.00 | 31 | 1010.5 |
| 20260507194614 | 57 | 205 | 3.0 | 10.0 | 0.00 | 0.00 | 0.00 | 31 | 1010.7 |
| 20260507193044 | 56 | 150 | 3.0 | 11.0 | 0.00 | 0.00 | 0.00 | 30 | 1010.8 |
| 20260507191541 | 56 | 134 | 1.0 | 9.0 | 0.00 | 0.00 | 0.00 | 28 | 1010.8 |
| 20260507190049 | 56 | 127 | 0.0 | 9.0 | 0.00 | 0.00 | 0.00 | 28 | 1010.8 |
| 20260507184538 | 56 | 206 | 3.0 | 11.0 | 0.00 | 0.00 | 0.00 | 33 | 1010.9 |
| 20260507183044 | 55 | 132 | 3.0 | 12.0 | 0.00 | 0.00 | 0.00 | 30 | 1011.1 |
| 20260507181553 | 54 | 0 | 2.0 | 9.0 | 0.00 | 0.00 | 0.00 | 31 | 1011.2 |
| 20260507180044 | 54 | 194 | 2.0 | 7.0 | 0.00 | 0.00 | 0.00 | 32 | 1011.2 |
| 20260507174553 | 54 | 288 | 1.0 | 6.0 | 0.00 | 0.00 | 0.00 | 34 | 1011.4 |
| 20260507173054 | 54 | 176 | 3.0 | 9.0 | 0.00 | 0.00 | 0.00 | 35 | 1011.6 |
| 20260507171549 | 52 | 342 | 1.0 | 5.0 | 0.00 | 0.00 | 0.00 | 34 | 1011.8 |